Weather Roundup
Issued by NWS

Home | Current Version | Previous Version | Graphics & Text | Print | Product List | Glossary Off
Versions: 1 2 3 4 5 6 7 8 9 10 11 12 13 14 15 16 17 18 19 20 21 22 23 24 25 26 27 28 29 30 31 32 33 34 35 36 37 38 39 40 41 42 43 44 45 46 47 48 49 50

428
NZUS93 KARX 250959
HRRWXR

CURRENT HOURLY OBSERVATIONS ACROSS
MUCH OF THE UPPER MISSISSIPPI VALLEY
NATIONAL WEATHER SERVICE LA CROSSE WI
400 AM CST SAT FEB 25 2017


...SOUTHEAST MINNESOTA...


CITY           SKY/WX    TMP DP  RH WIND       PRES   REMARKS
ROCHESTER      CLEAR     11   5  77 NW23      29.83R WCI  -9
ROCHESTER/MAYO FAIR      15   5  66 NW20G29   29.84R WCI  -3
WINONA         CLEAR     18  10  73 NW10      29.84R WCI   6
AUSTIN         CLEAR     12   5  73 NW12      29.86S WCI  -2
ALBERT LEA     PTCLDY    16   7  67 NW8       29.88S WCI   5
DODGE CENTER   NOT AVBL
PRESTON        CLOUDY    15   7  72 NW20G25   29.81R WCI  -3
OWATONNA       MOCLDY    16   7  67 NW21      29.88S WCI  -2
FARIBAULT      CLOUDY    18   9  68 NW12      29.90S WCI   5
$$

...ELSEWHERE IN MINNESOTA...


CITY           SKY/WX    TMP DP  RH WIND       PRES   REMARKS
MINNEAPOLIS    CLEAR     16   4  59 NW16      29.90S WCI   1
INTNL FALLS    CLEAR      3  -2  79 NW7       29.88F WCI  -9
DULUTH         PTCLDY     8   3  80 NW13G21   29.78R WCI  -8
RED WING       CLEAR     16   1  53 NW9       29.87R WCI   4
REDWOOD FALLS  CLEAR     17   5  59 NW13      29.99S WCI   4
MANKATO          N/A     16  10  77 NW15G23   29.94S WCI   1
WORTHINGTON    CLEAR     15   9  76 NW16      30.00S WCI  -1
FAIRMONT       CLEAR     14   8  77 NW18      29.96S WCI  -3
$$

...SOUTHWEST WISCONSIN...


CITY           SKY/WX    TMP DP  RH WIND       PRES   REMARKS
LA CROSSE      MOCLDY    20  10  65 NW22      29.80R WCI   3
PRAIRIE DU CHI FLURRIES  21  14  75 NW12G18   29.80S WCI   9
BOSCOBEL       LGT SNOW  21  14  74 W7        29.79R WCI  12
LONE ROCK      NOT AVBL
PLATTEVILLE    MOCLDY    19  18  95 NW8       29.74S WCI   9
FORT MC COY    LGT SNOW  19  14  84 NW12      29.77S WCI   6
CAMP DOUGLAS   FLURRIES  18  12  79 NW10      29.72S WCI   6
MAUSTON-NEW LI LGT SNOW  18  14  86 NW14      29.71R WCI   4
VIROQUA        CLOUDY    18  14  86 NW13G18   29.73S WCI   4
WIS DELLS      LGT SNOW  17  14  87 NW8       29.69R WCI   7
$$

...ELSEWHERE IN WISCONSIN...


CITY           SKY/WX    TMP DP  RH WIND       PRES   REMARKS
MILWAUKEE      LGT SNOW  24  18  77 W14G22    29.61R WCI  12
MADISON        LGT SNOW  18  15  88 NW13G21   29.68R FOG     WCI   5
GREEN BAY      CLOUDY    21  19  92 NW14      29.59R FOG     WCI   8
EAU CLAIRE     NOT AVBL
BLACK RVR FLS  FLURRIES  18  12  76 NE9       29.76S WCI   7
MEDFORD        LGT SNOW  14   8  78 NW12G18   29.65R WCI   0
WAUSAU         LGT SNOW  16  11  80 NW16G23   29.62S WCI   1
WIS RAPIDS     LGT SNOW  17  12  80 NW15G23   29.69R WCI   2
MARSHFIELD     FLURRIES  16   9  74 NW20      29.66S WCI  -1
RICE LAKE      PTCLDY    14   6  68 NW10G17   29.80S WCI   2
$$

...NORTHEAST IOWA...


CITY           SKY/WX    TMP DP  RH WIND       PRES   REMARKS
WATERLOO       CLEAR     16   9  74 NW12      29.88R WCI   3
DUBUQUE        CLOUDY    18  14  84 NW18      29.77R FOG     WCI   2
DECORAH        CLOUDY    18  10  73 NW12G20   29.80R WCI   5
MASON CITY     CLEAR     14  10  84 NW23      29.91S WCI  -5
CHARLES CITY   PTCLDY    14   9  79 NW13      29.87S WCI   0
OELWEIN        CLOUDY    18  12  79 NW22      29.84R WCI   0
$$

...ELSEWHERE IN IOWA...


CITY           SKY/WX    TMP DP  RH WIND       PRES   REMARKS
DES MOINES     MOCLDY    19  12  74 NW16      29.98S WCI   4
IOWA CITY      PTCLDY    22  13  68 NW16      29.88R WCI   8
FORT DODGE     CLEAR     12   7  79 NW9       29.98S WCI   0
MARSHALLTOWN   CLEAR     17  13  84 NW20      29.92R WCI   1
CEDAR RAPIDS   PTCLDY    18  13  80 NW22      29.85R WCI   1
$$

...NORTHERN ILLINOIS...


CITY           SKY/WX    TMP DP  RH WIND       PRES   REMARKS
CHICAGO-OHARE  CLOUDY    29  22  75 W17       29.63R WCI  17
CHICAGO-MIDWAY FLURRIES  31  23  72 W16G22    29.63R WCI  20
MOLINE         CLOUDY    24  16  71 NW20G31   29.81R WCI  10
ROCKFORD       LGT SNOW  23  18  81 NW18      29.71R WCI   9
PEORIA         CLOUDY    25  18  74 W13G29    29.79R WCI  14
$$

NOTE: "FAIR" INDICATES FEW OR NO CLOUDS BELOW 12,000 FEET WITH NO
SIGNIFICANT WEATHER AND/OR OBSTRUCTIONS TO VISIBILITY. WIND
SPEEDS ARE IN MILES-PER-HOUR.




USA.gov is the U.S. government's official web portal to all federal, state and local government web resources and services.